TimeAKDT,TemperatureF,Dew PointF,Humidity,Sea Level PressureIn,VisibilityMPH,Wind Direction,Wind SpeedMPH,Gust SpeedMPH,PrecipitationIn,Events,Conditions,WindDirDegrees,DateUTC
12:53 AM,52.0,48.0,86,30.09,10.0,SSE,5.8,-,N/A,,Overcast,160,2013-06-21 08:53:00
1:53 AM,51.1,48.0,89,30.09,10.0,SSE,8.1,-,N/A,,Overcast,150,2013-06-21 09:53:00
2:53 AM,51.1,48.0,89,30.10,10.0,SSE,5.8,-,N/A,,Overcast,160,2013-06-21 10:53:00
3:33 AM,51.8,46.4,82,30.10,10.0,SSE,3.5,-,N/A,,Overcast,160,2013-06-21 11:33:00
3:53 AM,51.1,46.9,86,30.10,10.0,Calm,Calm,-,N/A,,Overcast,0,2013-06-21 11:53:00
4:53 AM,52.0,46.9,83,30.10,10.0,Calm,Calm,-,N/A,,Overcast,0,2013-06-21 12:53:00
5:35 AM,50.0,46.4,87,30.10,10.0,SE,3.5,-,N/A,,Overcast,140,2013-06-21 13:35:00
5:53 AM,50.0,48.0,93,30.10,10.0,SSE,6.9,-,N/A,,Overcast,150,2013-06-21 13:53:00
6:27 AM,51.8,48.2,88,30.10,10.0,SSE,6.9,-,N/A,,Overcast,160,2013-06-21 14:27:00
6:53 AM,51.1,48.0,89,30.11,10.0,SSE,6.9,-,N/A,,Overcast,150,2013-06-21 14:53:00
7:38 AM,51.8,46.4,82,30.11,10.0,SSE,8.1,-,N/A,,Overcast,160,2013-06-21 15:38:00
7:53 AM,51.1,48.0,89,30.11,10.0,SSE,9.2,-,N/A,,Overcast,160,2013-06-21 15:53:00
8:13 AM,51.8,46.4,82,30.11,10.0,SSE,10.4,-,N/A,,Overcast,160,2013-06-21 16:13:00
8:40 AM,51.8,46.4,82,30.11,10.0,SSE,9.2,-,N/A,,Overcast,150,2013-06-21 16:40:00
8:53 AM,52.0,46.9,83,30.11,10.0,SSE,10.4,-,N/A,,Overcast,150,2013-06-21 16:53:00
9:53 AM,53.1,46.9,80,30.12,10.0,SSE,11.5,-,N/A,,Overcast,160,2013-06-21 17:53:00
10:53 AM,53.1,46.0,77,30.12,10.0,SSE,11.5,-,N/A,,Mostly Cloudy,160,2013-06-21 18:53:00
11:53 AM,54.0,46.0,75,30.13,10.0,SSE,12.7,-,N/A,,Overcast,160,2013-06-21 19:53:00
12:53 PM,55.0,45.0,69,30.14,10.0,SSE,12.7,-,N/A,,Overcast,160,2013-06-21 20:53:00
1:53 PM,55.9,45.0,67,30.14,10.0,SSE,13.8,-,N/A,,Overcast,160,2013-06-21 21:53:00
2:53 PM,55.0,45.0,69,30.14,10.0,SSE,11.5,-,N/A,,Mostly Cloudy,160,2013-06-21 22:53:00
3:53 PM,55.9,45.0,67,30.14,10.0,SSE,11.5,19.6,N/A,,Overcast,160,2013-06-21 23:53:00
4:53 PM,55.0,45.0,69,30.13,10.0,SSE,10.4,-,N/A,,Overcast,160,2013-06-22 00:53:00
5:53 PM,54.0,45.0,72,30.13,10.0,South,9.2,17.3,N/A,,Overcast,170,2013-06-22 01:53:00
6:53 PM,53.1,45.0,74,30.13,10.0,SSE,11.5,-,N/A,,Overcast,160,2013-06-22 02:53:00
7:53 PM,55.0,45.0,69,30.12,10.0,SSE,10.4,-,N/A,,Overcast,160,2013-06-22 03:53:00
8:53 PM,53.1,45.0,74,30.11,10.0,South,6.9,-,N/A,,Overcast,170,2013-06-22 04:53:00
9:53 PM,52.0,45.0,77,30.10,10.0,SSE,11.5,-,N/A,,Overcast,160,2013-06-22 05:53:00
10:53 PM,52.0,45.0,77,30.10,10.0,SSE,8.1,-,N/A,,Overcast,160,2013-06-22 06:53:00
11:53 PM,51.1,45.0,80,30.10,10.0,SSE,6.9,-,N/A,,Overcast,160,2013-06-22 07:53:00